Weather History for South St. Paul, MN

Change the Weather History Date:

Sunday, December 9, 2012

  Actual Average (KMSP) Record (KMSP)
Temperature  
Mean Temperature 28 °F 22 °F  
Max Temperature 33 °F 29 °F 58 °F (1939)
Min Temperature 23 °F 14 °F -27 °F (1876)
Degree Days  
Heating Degree Days 36 43  
Month to date heating degree days 375  
Since 1 July heating degree days 1994  
Cooling Degree Days 0 0  
Month to date cooling degree days 0  
Year to date cooling degree days 753  
Moisture  
Dew Point 29 °F    
Average Humidity 92    
Maximum Humidity 96    
Minimum Humidity 71    
Precipitation  
Precipitation 0.45 in 0.04 in 1.19 in (1899)
Month to date precipitation 0.38  
Year to date precipitation 29.83  
Snow  
Snow 0.00 in 0.50 in 10.50 in (2012)
Month to date snowfall 3.7  
Since 1 July snowfall 13.6  
Snow Depth -    
Sea Level Pressure  
Sea Level Pressure 29.90 in    
Wind  
Wind Speed 6 mph (East)    
Max Wind Speed 16 mph    
Max Gust Speed 21 mph    
Visibility 2 miles    
Events Snow    
T = Trace of Precipitation, MM = Missing Value Source: NWS Daily Summary

Daily Weather History Graph

Daily Weather History Graph

Search for Another Location

Airport:

Trip Planner

Search our weather history database for the weather conditions in past years. The results will help you decide how hot, cold, wet, or windy it might be!

Date:

Astronomy

Dec. 09, 2012 Rise Set
Actual Time 7:38 AM CST 4:30 PM CST
Civil Twilight 7:04 AM CST 5:04 PM CST
Nautical Twilight 6:28 AM CST 5:41 PM CST
Astronomical Twilight 5:52 AM CST 6:16 PM CST
Moon 3:03 AM CST (12/9) 1:45 PM CST (12/9)
Length of Visible Light 9h 59m
Length of Day
8h 52m
Waning Crescent, 18% of the Moon is Illuminated
Dec 9
Waning Crescent
Dec 13
New
Dec 19
First Quarter
Dec 28
Full
Jan 4
Last Quarter

Hourly Weather History & Observations

Time (CST) Temp. Windchill Dew Point Humidity Pressure Visibility Wind Dir Wind Speed Gust Speed Precip Events Conditions
12:12 AM 33.4 °F 28.1 °F 24.8 °F 71% 30.02 in 10.0 mi SE 5.8 mph - N/A   Overcast
12:32 AM 33.4 °F 29.1 °F 25.7 °F 73% 30.02 in 5.0 mi ESE 4.6 mph - N/A Snow Light Snow
12:52 AM 33.3 °F 27.9 °F 25.7 °F 74% 30.02 in 10.0 mi East 5.8 mph - N/A   Overcast
1:12 AM 33.1 °F 27.7 °F 27.0 °F 78% 30.00 in 2.5 mi East 5.8 mph - N/A Snow Light Snow
1:32 AM 32.4 °F 27.9 °F 28.2 °F 85% 30.00 in 3.0 mi ESE 4.6 mph - N/A Snow Light Snow
1:52 AM 32.0 °F 25.6 °F 29.1 °F 89% 30.01 in 1.5 mi SE 6.9 mph - N/A Snow Light Snow
2:12 AM 32.0 °F 27.5 °F 29.5 °F 90% 30.01 in 1.8 mi ESE 4.6 mph - N/A Snow Light Snow
2:32 AM 31.8 °F 26.2 °F 29.8 °F 92% 29.99 in 1.2 mi East 5.8 mph - 0.01 in Snow Light Snow
2:52 AM 31.6 °F 27.0 °F 29.7 °F 92% 29.99 in 2.0 mi East 4.6 mph - 0.01 in Snow Light Snow
3:12 AM 31.6 °F 25.1 °F 29.5 °F 92% 29.97 in 2.0 mi ESE 6.9 mph - N/A Snow Light Snow
3:32 AM 31.6 °F 28.3 °F 29.8 °F 93% 29.99 in 1.8 mi East 3.5 mph - N/A Snow Light Snow
3:52 AM 31.3 °F 25.6 °F 29.5 °F 93% 29.98 in 1.5 mi East 5.8 mph - 0.01 in Snow Light Snow
4:12 AM 31.1 °F 25.4 °F 29.7 °F 94% 29.97 in 1.2 mi East 5.8 mph - N/A Snow Light Snow
4:32 AM 31.6 °F 27.0 °F 29.8 °F 93% 29.98 in 3.0 mi SE 4.6 mph - 0.01 in Snow Light Snow
4:52 AM 31.8 °F 27.3 °F 29.8 °F 92% 29.96 in 2.5 mi ESE 4.6 mph - 0.01 in Snow Light Snow
5:12 AM 31.8 °F 26.2 °F 30.0 °F 93% 29.97 in 1.8 mi ESE 5.8 mph - N/A Snow Light Snow
5:32 AM 31.8 °F 26.2 °F 30.2 °F 94% 29.95 in 1.2 mi ESE 5.8 mph - 0.01 in Snow Light Snow
5:52 AM 32.0 °F 27.5 °F 30.2 °F 93% 29.95 in 2.5 mi ESE 4.6 mph - 0.01 in Snow Light Snow
6:12 AM 32.0 °F 26.4 °F 30.2 °F 93% 29.94 in 7.0 mi SE 5.8 mph - N/A   Overcast
6:32 AM 32.0 °F 27.5 °F 30.0 °F 92% 29.95 in 7.0 mi SE 4.6 mph - N/A   Overcast
6:52 AM 32.0 °F 25.6 °F 29.8 °F 92% 29.94 in 2.5 mi SE 6.9 mph - N/A Snow Light Snow
7:12 AM 32.0 °F 26.4 °F 30.2 °F 93% 29.94 in 2.0 mi SE 5.8 mph - N/A Snow Light Snow
7:32 AM 32.0 °F 27.5 °F 30.4 °F 94% 29.93 in 2.5 mi ESE 4.6 mph - N/A Snow Light Snow
7:52 AM 32.0 °F 26.4 °F 30.2 °F 93% 29.93 in 1.8 mi ESE 5.8 mph - 0.01 in Snow Light Snow
8:12 AM 32.0 °F 25.6 °F 30.4 °F 94% 29.93 in 0.8 mi ESE 6.9 mph - 0.01 in Snow Light Snow
8:32 AM 32.0 °F 28.7 °F 30.7 °F 95% 29.94 in 0.8 mi ESE 3.5 mph - 0.03 in Snow Light Snow
8:52 AM 32.0 °F 27.5 °F 30.7 °F 95% 29.93 in 0.8 mi East 4.6 mph - 0.04 in Snow Light Snow
9:32 AM 32.0 °F 28.7 °F 30.7 °F 95% 29.92 in 1.2 mi ESE 3.5 mph - 0.02 in Snow Light Snow
9:52 AM 32.2 °F 27.7 °F 31.1 °F 96% 29.92 in 1.0 mi ESE 4.6 mph - 0.03 in Snow Light Snow
10:12 AM 32.2 °F 26.7 °F 31.1 °F 96% 29.91 in 0.5 mi ESE 5.8 mph - 0.01 in Snow Snow
10:32 AM 32.2 °F 25.0 °F 31.1 °F 96% 29.91 in 0.5 mi East 8.1 mph - 0.02 in Snow Snow
10:52 AM 32.2 °F 25.0 °F 31.1 °F 96% 29.90 in 0.8 mi ESE 8.1 mph - 0.04 in Snow Light Snow
11:12 AM 32.2 °F 26.7 °F 31.1 °F 96% 29.90 in 0.8 mi ESE 5.8 mph - 0.01 in Snow Light Snow
11:32 AM 32.0 °F 27.5 °F 30.9 °F 96% 29.89 in 0.8 mi East 4.6 mph - 0.02 in Snow Light Snow
11:52 AM 32.0 °F 25.6 °F 30.9 °F 96% 29.88 in 0.5 mi East 6.9 mph - 0.03 in Snow Snow
12:12 PM 32.0 °F 25.6 °F 30.9 °F 96% 29.86 in 0.5 mi East 6.9 mph - 0.01 in   Overcast
12:32 PM 32.0 °F 25.6 °F 30.7 °F 95% 29.85 in 0.5 mi East 6.9 mph - 0.02 in Snow Snow
12:52 PM 32.0 °F 26.4 °F 30.7 °F 95% 29.84 in 0.5 mi ESE 5.8 mph - 0.03 in Snow Snow
1:12 PM 32.0 °F 25.6 °F 30.7 °F 95% 29.83 in 0.5 mi East 6.9 mph - 0.01 in Snow Light Snow
1:32 PM 31.8 °F 27.3 °F 30.2 °F 94% 29.82 in 0.5 mi East 4.6 mph - 0.03 in Snow Snow
1:52 PM 31.8 °F 25.4 °F 30.2 °F 94% 29.82 in 0.5 mi East 6.9 mph - 0.05 in Snow Light Snow
2:12 PM 31.6 °F 27.0 °F 30.2 °F 94% 29.82 in 0.5 mi East 4.6 mph - 0.01 in Snow Light Snow
2:32 PM 31.6 °F 26.0 °F 30.2 °F 94% 29.82 in 0.5 mi East 5.8 mph - 0.02 in   Overcast
2:52 PM 31.6 °F 27.0 °F 30.2 °F 94% 29.82 in 0.5 mi East 4.6 mph - 0.05 in   Overcast
3:12 PM 31.5 °F 26.8 °F 30.2 °F 95% 29.82 in 0.5 mi East 4.6 mph - 0.01 in Snow Snow
3:32 PM 31.1 °F 26.4 °F 30.0 °F 96% 29.82 in 0.5 mi ENE 4.6 mph - 0.03 in Snow Light Snow
3:52 PM 31.1 °F - 30.0 °F 96% 29.83 in 0.5 mi Calm Calm - 0.05 in Snow Snow
4:12 PM 31.1 °F - 29.8 °F 95% 29.84 in 0.5 mi Calm Calm - 0.02 in Snow Snow
4:32 PM 31.1 °F 27.7 °F 30.0 °F 96% 29.84 in 0.5 mi NNE 3.5 mph - 0.03 in Snow Snow
4:52 PM 31.1 °F 26.4 °F 30.0 °F 96% 29.84 in 1.5 mi NNE 4.6 mph - 0.05 in Snow Light Snow
5:12 PM 31.1 °F 24.5 °F 29.7 °F 94% 29.84 in 2.0 mi NNE 6.9 mph - 0.01 in Snow Light Snow
5:32 PM 30.9 °F 25.2 °F 29.3 °F 94% 29.85 in 2.0 mi NNE 5.8 mph - 0.01 in Snow Light Snow
5:52 PM 30.9 °F 25.2 °F 29.3 °F 94% 29.85 in 4.0 mi North 5.8 mph - 0.02 in   Overcast
6:12 PM 30.9 °F 24.3 °F 29.1 °F 93% 29.85 in 4.0 mi North 6.9 mph - N/A   Overcast
6:32 PM 30.9 °F 23.5 °F 28.9 °F 92% 29.85 in 4.0 mi North 8.1 mph - N/A   Overcast
6:52 PM 30.9 °F 23.5 °F 28.8 °F 92% 29.85 in 4.0 mi North 8.1 mph - 0.01 in   Overcast
7:12 PM 30.9 °F 26.2 °F 28.6 °F 91% 29.85 in 3.0 mi North 4.6 mph - N/A Snow Light Snow
7:32 PM 30.7 °F 24.1 °F 28.8 °F 92% 29.85 in 3.0 mi North 6.9 mph - N/A Snow Light Snow
7:52 PM 30.7 °F 23.3 °F 28.8 °F 92% 29.85 in 3.0 mi North 8.1 mph - N/A Snow Light Snow
8:12 PM 30.7 °F 22.6 °F 28.4 °F 91% 29.86 in 3.0 mi North 9.2 mph - N/A Snow Light Snow
8:32 PM 30.6 °F 22.4 °F 28.0 °F 90% 29.86 in 3.0 mi North 9.2 mph - N/A Snow Light Snow
8:52 PM 30.2 °F 22.6 °F 27.7 °F 90% 29.86 in 3.0 mi North 8.1 mph - N/A Snow Light Snow
9:12 PM 30.2 °F 22.6 °F 27.9 °F 91% 29.85 in 2.5 mi North 8.1 mph - N/A Snow Light Snow
9:32 PM 30.0 °F 22.4 °F 28.0 °F 92% 29.86 in 1.8 mi North 8.1 mph - N/A Snow Light Snow
9:52 PM 30.0 °F 21.1 °F 28.0 °F 92% 29.86 in 1.8 mi North 10.4 mph - N/A Snow Light Snow
10:12 PM 30.0 °F 21.7 °F 27.9 °F 92% 29.86 in 2.5 mi North 9.2 mph - N/A Snow Light Snow
10:32 PM 28.4 °F 18.5 °F 25.5 °F 89% 29.87 in 4.0 mi North 11.5 mph 17.3 mph N/A   Overcast
10:52 PM 26.6 °F 16.2 °F 23.0 °F 86% 29.88 in 2.5 mi NNW 11.5 mph 18.4 mph N/A Snow Light Snow
11:12 PM 25.7 °F 14.0 °F 22.5 °F 88% 29.88 in 2.5 mi North 13.8 mph 20.7 mph N/A Snow Light Snow
11:32 PM 24.3 °F 12.7 °F 20.8 °F 87% 29.88 in 2.5 mi North 12.7 mph 19.6 mph N/A Snow Light Snow
11:52 PM 23.2 °F 9.8 °F 19.8 °F 87% 29.89 in 3.0 mi NNW 16.1 mph 20.7 mph N/A   Overcast